[[{"header":{"parameterUnit":"m.s-1","parameterCategory":1,"la1":30.2991,"la2":30.254,"lo1":-89.0895,"lo2":-89.0444,"dy":0.0017,"dx":0.0017,"nx":28,"ny":28,"refTime":"2024-09-27T09:00:00:Z","depth":0,"parameterNumber":2,"parameterNumberName":"U-component_of_WINDS"},"data":[0,0,0,0,0,0,0,0,0,0,0,0,0,0,0,0,0,0,0,0,0,0,0,0,0,0,0,0,0,0,0,0,0,0,0,0,0,0,0,0,0,0,0,0,0,0,0,0,0,0,0,0,0,0,0,0,0,0,7.4893,7.4895,0,7.5029,7.503,7.5032,7.498,7.4977,7.4974,7.4971,7.5111,7.5118,7.5124,0,0,0,0,0,0,0,0,0,0,0,0,0,7.4592,7.4598,7.4893,7.4895,7.4897,7.5029,7.503,7.5032,7.498,7.4977,7.4973,7.4969,7.5109,7.5117,7.5125,0,0,0,0,0,0,0,0,0,0,0,0,0,7.4725,7.46,7.4893,7.4887,7.4887,7.5028,7.5031,7.5033,7.4981,7.4977,7.4972,7.4968,7.5107,7.5116,7.5126,7.5282,0,0,7.5157,7.5161,0,0,0,0,0,0,0,0,7.4718,7.4736,7.4886,7.4887,7.4888,7.4983,7.4976,7.5116,7.4982,7.4946,7.4971,7.4965,7.5072,7.5085,7.5121,7.5288,7.5294,7.5158,7.5164,7.5168,7.5171,0,0,0,0,0,0,0,7.4708,7.473,7.4947,7.4888,7.489,7.4878,7.4892,7.5002,7.5034,7.4949,7.4945,7.4962,7.5072,7.5111,7.5124,7.5296,7.5157,7.5166,7.5172,7.5176,7.5601,7.5606,0,0,0,0,0,0,7.4698,7.4723,7.4943,7.4951,7.479,7.4887,7.4902,7.4957,7.5032,7.5039,7.4966,7.4959,7.5096,7.5112,7.5128,7.5317,7.5168,7.5177,7.5183,7.5596,7.5602,7.5608,0,0,0,0,0,0,7.4692,7.4719,7.4937,7.4836,7.4863,7.4897,7.4959,7.4962,7.5001,7.5045,7.5051,7.5,7.5093,7.5114,7.5244,7.5321,7.5182,7.5191,7.559,7.5598,7.5605,7.5695,0,0,0,0,0,0,7.4684,7.4717,7.4775,7.4838,7.4868,7.505,7.4964,7.4968,7.5018,7.5011,7.5079,7.5085,7.5091,7.523,7.5254,7.5333,7.5199,7.5583,7.5593,7.5603,7.5686,7.5705,7.5722,0,0,0,0,0,7.4673,7.4795,7.4778,7.4805,7.4942,7.5055,7.5072,7.5076,7.5025,7.5085,7.5113,7.5083,7.5309,7.5244,7.5271,7.5353,7.5578,7.559,7.5602,7.5677,7.5701,7.5722,0,0,0,0,0,0,7.4741,7.4803,7.4785,7.4931,7.4988,7.5046,7.5121,7.5101,7.5175,7.5164,7.5167,7.5183,7.5317,7.5348,7.5274,7.5509,7.5436,7.5454,7.5484,7.5507,7.5525,7.5515,7.5207,0,0,0,0,0,7.4773,7.4858,7.4908,7.5032,7.5061,7.5087,7.5136,7.5134,7.5193,7.5217,7.5255,7.5315,7.5399,7.5455,7.5535,7.569,7.5705,7.576,7.5778,7.5793,7.5809,7.5895,7.5921,7.5647,7.5647,7.5647,0,0,7.4839,7.4884,7.4938,7.5046,7.509,7.518,7.5107,7.5204,7.5271,7.5232,7.5357,7.5388,7.5454,7.5598,7.5664,7.5628,7.5888,7.5808,7.582,7.5828,7.591,7.5936,7.5959,7.5655,7.5654,7.5653,0,0,7.5007,7.5048,7.5157,7.5203,7.527,7.5287,7.5313,7.5375,7.5393,7.5519,7.5492,7.5572,7.5717,7.5766,7.581,7.5999,7.5975,7.6025,7.6121,7.6205,7.6227,7.6246,7.6315,7.6339,7.604,7.6041,7.6041,0,7.5081,7.5214,7.5215,7.5316,7.5365,7.5334,7.5445,7.5489,7.558,7.5616,7.5574,7.5757,7.58,7.5956,7.6002,7.6038,7.6069,7.6017,7.6223,7.6243,7.6261,7.6326,7.6352,7.6046,7.6046,7.6045,7.6045,0,7.5304,7.5396,7.5476,7.5565,7.5623,7.5728,7.5746,7.5806,7.5799,7.5821,7.595,7.6001,7.6091,7.6128,7.6122,7.6284,7.626,7.6222,7.6148,7.6292,7.6354,7.6379,7.6055,7.6053,7.6051,7.6049,0,0,7.5517,7.5606,7.5635,7.5676,7.5749,7.5822,7.5926,7.6014,7.6066,7.613,7.6219,7.6343,7.6308,7.6358,7.6358,7.6432,7.6581,7.6384,7.6386,7.6421,7.6764,7.6794,7.6823,7.6565,7.657,7.6573,7.6759,0,7.5692,7.5874,7.5879,7.6047,7.6134,7.6107,7.6198,7.6253,7.6276,7.6354,7.638,7.6469,7.6415,7.6445,7.6517,7.6547,7.665,7.6534,7.6649,7.6653,7.6634,7.6855,7.6886,7.7059,7.6783,7.6787,7.679,0,7.5919,7.5991,7.6168,7.623,7.6267,7.6349,7.6431,7.6506,7.6569,7.658,7.6637,7.6627,7.6735,7.6658,7.6809,7.673,7.6777,7.6799,7.6806,7.6818,7.6731,7.6874,7.7114,7.7141,7.6828,7.6825,7.6822,0,7.606,7.62,7.6325,7.636,7.6436,7.6494,7.6529,7.6587,7.664,7.6713,7.6748,7.6832,7.6879,7.6945,7.6958,7.69,7.7109,7.7033,7.7123,7.7123,7.7169,7.7166,7.7422,7.7198,7.7198,7.7197,7.7197,0,7.6255,7.6365,7.6389,7.6466,7.6588,7.6593,7.6715,7.6745,7.6798,7.6881,7.6861,7.694,7.6952,7.7034,7.7045,7.7169,7.719,7.7203,7.7205,7.7206,7.7205,7.7238,7.7227,7.7204,7.7203,7.7201,7.72,0,7.6433,7.6453,7.6587,7.6648,7.6666,7.6754,7.6806,7.6881,7.6902,7.7007,7.7032,7.7066,7.7162,7.7181,7.7294,7.7302,7.745,7.7439,7.7429,7.7428,7.7518,7.751,7.7805,7.7845,7.7594,7.7596,7.7598,0,7.6557,7.6641,7.6711,7.6765,7.6802,7.6889,7.6944,7.6953,7.7011,7.709,7.7155,7.7248,7.7324,7.7478,7.7513,7.76,7.7592,7.769,7.7605,7.7604,7.7596,7.7591,7.76,7.7706,7.7709,7.7711,7.7713,0,7.6775,7.6781,7.6861,7.6945,7.701,7.7077,7.714,7.7185,7.7203,7.7269,7.7367,7.7425,7.7541,7.7635,7.7722,7.7758,7.774,7.7739,7.7765,7.7767,7.7758,7.7766,7.7474,7.7732,7.773,7.7729,7.7728,7.7727,7.6931,7.7005,7.7066,7.7156,7.7204,7.7264,7.7337,7.7368,7.7449,7.7544,7.7544,7.7651,7.7714,7.7829,7.7871,7.7956,7.7925,7.7962,7.7972,7.7981,7.7991,7.7744,7.7971,7.7971,7.797,7.797,7.797,0,7.715,7.7188,7.727,7.7359,7.743,7.7406,7.7475,7.7536,7.763,7.769,7.7765,7.7878,7.7969,7.8012,7.8102,7.8162,7.8156,7.8186,7.8182,7.8191,7.8012,7.7981,7.8189,7.8189,7.8189,7.8189,7.8189,7.8189,7.7272,7.7397,7.741,7.7559,7.7597,7.7701,7.7743,7.7799,7.7847,7.7973,7.8049,7.8076,7.813,7.8224,7.8307,7.8318,7.8353,7.8387,7.8394,7.8226,7.8203,7.8182,7.8153,7.8394,7.8394,7.8566,7.8567,7.8569]},{"header":{"parameterUnit":"m.s-1","parameterCategory":1,"la1":30.2991,"la2":30.254,"lo1":-89.0895,"lo2":-89.0444,"dy":0.0017,"dx":0.0017,"nx":28,"ny":28,"refTime":"2024-09-27T09:00:00:Z","depth":0,"parameterNumber":3,"parameterNumberName":"V-component_of_WINDS"},"data":[0,0,0,0,0,0,0,0,0,0,0,0,0,0,0,0,0,0,0,0,0,0,0,0,0,0,0,0,0,0,0,0,0,0,0,0,0,0,0,0,0,0,0,0,0,0,0,0,0,0,0,0,0,0,0,0,0,0,0.0922,0.0922,0,0.0956,0.0957,0.0957,0.0956,0.0955,0.0955,0.0955,0.0991,0.0992,0.0993,0,0,0,0,0,0,0,0,0,0,0,0,0,0.0855,0.0856,0.0922,0.0922,0.0923,0.0956,0.0957,0.0957,0.0956,0.0955,0.0955,0.0954,0.099,0.0992,0.0993,0,0,0,0,0,0,0,0,0,0,0,0,0,0.0886,0.0857,0.0922,0.0926,0.0927,0.0956,0.0957,0.0957,0.0956,0.0955,0.0955,0.0954,0.099,0.0992,0.0994,0.1021,0,0,0.1,0.1001,0,0,0,0,0,0,0,0,0.0884,0.0889,0.0925,0.0926,0.0927,0.0951,0.0946,0.0979,0.0956,0.0945,0.0955,0.0954,0.0978,0.0981,0.0989,0.1023,0.1024,0.1,0.1002,0.1003,0.1003,0,0,0,0,0,0,0,0.0882,0.0887,0.0936,0.0926,0.0927,0.0926,0.093,0.0952,0.0965,0.0946,0.0946,0.095,0.0978,0.0987,0.099,0.1025,0.1,0.1002,0.1003,0.1004,0.1081,0.1082,0,0,0,0,0,0,0.0879,0.0885,0.0934,0.0937,0.0903,0.0928,0.0932,0.0944,0.0965,0.0967,0.0951,0.095,0.0984,0.0988,0.0991,0.1024,0.1003,0.1005,0.1006,0.108,0.1081,0.1082,0,0,0,0,0,0,0.0878,0.0883,0.0933,0.0911,0.0917,0.093,0.0943,0.0945,0.0954,0.0968,0.0971,0.0957,0.0983,0.0988,0.1013,0.1025,0.1005,0.1007,0.1079,0.1081,0.1082,0.109,0,0,0,0,0,0,0.0876,0.0883,0.0894,0.0911,0.0918,0.0955,0.0944,0.0946,0.0957,0.0957,0.0975,0.0978,0.0983,0.101,0.1015,0.1028,0.1009,0.1078,0.108,0.1081,0.1088,0.1091,0.1093,0,0,0,0,0,0.0873,0.0895,0.0894,0.09,0.0932,0.0955,0.096,0.0965,0.0958,0.0969,0.0978,0.0977,0.1023,0.1013,0.1019,0.1032,0.1078,0.1079,0.1081,0.1087,0.109,0.1093,0,0,0,0,0,0,0.0879,0.0898,0.0897,0.0925,0.0938,0.0955,0.0969,0.0969,0.0985,0.0984,0.099,0.0994,0.1019,0.1028,0.1016,0.1058,0.1049,0.1052,0.1052,0.1055,0.1057,0.1055,0.1011,0,0,0,0,0,0.0884,0.0901,0.0916,0.0939,0.0946,0.0956,0.0967,0.097,0.0984,0.099,0.1001,0.1016,0.1033,0.1044,0.1061,0.1089,0.1093,0.1101,0.1103,0.1105,0.1108,0.1122,0.1125,0.1088,0.1088,0.1088,0,0,0.0894,0.0906,0.0916,0.0941,0.0952,0.0969,0.0961,0.0981,0.0994,0.0993,0.1017,0.1026,0.1042,0.1068,0.108,0.1076,0.1119,0.1107,0.1109,0.111,0.1124,0.1128,0.1131,0.1089,0.1089,0.1089,0,0,0.092,0.0931,0.0951,0.0962,0.0978,0.0985,0.0989,0.1006,0.1011,0.1035,0.1035,0.105,0.1081,0.1092,0.1101,0.113,0.1129,0.1135,0.1148,0.1162,0.1164,0.1167,0.1177,0.118,0.1138,0.1138,0.1138,0,0.093,0.0957,0.0962,0.0981,0.0991,0.0991,0.1011,0.1021,0.1042,0.1049,0.1044,0.1081,0.1092,0.112,0.1127,0.1135,0.114,0.1134,0.1164,0.1166,0.1169,0.1178,0.1182,0.1138,0.1138,0.1138,0.1138,0,0.0968,0.0986,0.1,0.102,0.1032,0.1051,0.1059,0.107,0.1072,0.1079,0.1102,0.1115,0.1134,0.1141,0.1143,0.1169,0.1166,0.1162,0.1153,0.1173,0.1182,0.1185,0.1139,0.1139,0.1139,0.1139,0,0,0.1,0.1021,0.1026,0.1035,0.1052,0.1066,0.1085,0.1103,0.1112,0.1126,0.1142,0.1167,0.1163,0.1173,0.1177,0.1189,0.121,0.1183,0.1184,0.1187,0.1238,0.124,0.1244,0.1209,0.121,0.121,0.1236,0,0.1028,0.1062,0.1066,0.1095,0.1112,0.1111,0.1127,0.1139,0.1146,0.116,0.1167,0.1184,0.1178,0.1185,0.1196,0.1205,0.122,0.1203,0.1223,0.1224,0.1219,0.1249,0.1252,0.1276,0.124,0.124,0.1241,0,0.1065,0.108,0.1111,0.1124,0.1131,0.1146,0.1162,0.1176,0.1189,0.1193,0.1204,0.1206,0.1225,0.1214,0.124,0.1228,0.1237,0.1242,0.1243,0.1245,0.1234,0.1252,0.1284,0.1288,0.1246,0.1246,0.1245,0,0.1085,0.1112,0.1134,0.1141,0.1158,0.1168,0.1175,0.1188,0.1198,0.1212,0.1218,0.1234,0.1243,0.1255,0.1261,0.1253,0.1286,0.1276,0.1289,0.1289,0.1296,0.1296,0.133,0.1302,0.1302,0.1302,0.1302,0,0.1116,0.1134,0.1143,0.1156,0.1177,0.1181,0.1201,0.1208,0.1219,0.1234,0.1234,0.1247,0.1254,0.1268,0.1272,0.1292,0.1296,0.1299,0.13,0.1299,0.1299,0.1305,0.1303,0.1303,0.1302,0.1302,0.1302,0,0.1141,0.1148,0.1171,0.1184,0.1188,0.1203,0.1214,0.1227,0.1232,0.125,0.1255,0.1264,0.128,0.1287,0.1307,0.131,0.1333,0.1333,0.1328,0.1328,0.134,0.1339,0.138,0.1385,0.1354,0.1354,0.1355,0,0.116,0.1175,0.1189,0.1199,0.1206,0.1221,0.1231,0.1236,0.1246,0.1261,0.1272,0.1288,0.1302,0.1328,0.1336,0.1351,0.1351,0.1364,0.1354,0.1352,0.1351,0.135,0.1351,0.1367,0.1367,0.1367,0.1367,0,0.1193,0.1195,0.1209,0.1224,0.1236,0.1248,0.126,0.1268,0.1274,0.1285,0.1302,0.1312,0.1332,0.1348,0.1363,0.1371,0.137,0.1371,0.1374,0.1373,0.137,0.1371,0.1333,0.137,0.137,0.1369,0.1369,0.1369,0.1216,0.1228,0.124,0.1255,0.1264,0.1275,0.1287,0.1294,0.1308,0.1324,0.1326,0.1343,0.1355,0.1375,0.1383,0.1397,0.1393,0.1399,0.14,0.1401,0.1402,0.1368,0.14,0.14,0.14,0.1399,0.1399,0,0.1248,0.1255,0.1269,0.1285,0.1297,0.1295,0.1307,0.1317,0.1333,0.1344,0.1356,0.1375,0.139,0.1399,0.1414,0.1423,0.1422,0.1426,0.1426,0.1427,0.1404,0.1399,0.1426,0.1426,0.1426,0.1426,0.1426,0.1426,0.1266,0.1286,0.129,0.1314,0.1321,0.1338,0.1345,0.1355,0.1363,0.1384,0.1396,0.1401,0.1411,0.1426,0.144,0.1442,0.1447,0.1451,0.1453,0.1432,0.1429,0.1426,0.1422,0.1452,0.1453,0.1475,0.1475,0.1475]}]]